Time,TemperatureF,DewpointF,PressureIn,WindDirection,WindDirectionDegrees,WindSpeedMPH,WindSpeedGustMPH,Humidity,HourlyPrecipIn,Conditions,Clouds,dailyrainin,SoftwareType,DateUTC
2013-07-23 00:00:00,70.4,70.0,29.03,South,180,2.0,2.0,99,0.06,,,0.00,Rainwise IP-100,2013-07-23 04:00:00,
2013-07-23 00:01:00,70.4,70.0,29.03,South,180,2.0,2.0,99,0.06,,,0.00,Rainwise IP-100,2013-07-23 04:01:00,
2013-07-23 00:06:00,70.3,69.0,29.03,SSE,157,0.0,2.0,99,0.06,,,0.01,Rainwise IP-100,2013-07-23 04:06:00,
2013-07-23 00:11:00,70.3,69.0,29.02,SSW,202,1.0,2.0,99,0.06,,,0.01,Rainwise IP-100,2013-07-23 04:11:00,
2013-07-23 00:16:00,70.2,69.0,29.02,SSW,202,1.0,2.0,99,0.06,,,0.02,Rainwise IP-100,2013-07-23 04:16:00,
2013-07-23 00:21:00,70.1,69.0,29.02,SSW,202,0.0,2.0,99,0.06,,,0.02,Rainwise IP-100,2013-07-23 04:21:00,
2013-07-23 00:26:00,70.1,69.0,29.02,WSW,247,0.0,2.0,99,0.00,,,0.03,Rainwise IP-100,2013-07-23 04:26:00,
2013-07-23 00:31:00,69.8,69.0,29.01,WSW,247,1.0,2.0,99,0.06,,,0.03,Rainwise IP-100,2013-07-23 04:31:00,
2013-07-23 00:36:00,69.7,69.0,29.01,West,270,0.0,2.0,99,0.12,,,0.04,Rainwise IP-100,2013-07-23 04:36:00,
2013-07-23 00:41:00,69.4,69.0,29.01,West,270,2.0,2.0,99,0.06,,,0.04,Rainwise IP-100,2013-07-23 04:41:00,
2013-07-23 00:46:00,69.3,69.0,29.01,West,270,1.0,2.0,99,0.06,,,0.05,Rainwise IP-100,2013-07-23 04:46:00,
2013-07-23 00:51:00,69.3,69.0,29.01,West,270,0.0,2.0,99,0.06,,,0.05,Rainwise IP-100,2013-07-23 04:51:00,
2013-07-23 00:56:00,69.3,69.0,29.00,West,270,0.0,0.0,99,0.00,,,0.05,Rainwise IP-100,2013-07-23 04:56:00,
2013-07-23 01:01:00,69.2,69.0,29.00,West,270,0.0,0.0,99,0.06,,,0.06,Rainwise IP-100,2013-07-23 05:01:00,
2013-07-23 01:06:00,69.2,69.0,28.99,West,270,0.0,2.0,99,0.06,,,0.06,Rainwise IP-100,2013-07-23 05:06:00,
2013-07-23 01:11:00,69.2,69.0,28.99,West,270,0.0,2.0,99,0.06,,,0.07,Rainwise IP-100,2013-07-23 05:11:00,
2013-07-23 01:16:00,69.2,69.0,28.99,West,270,0.0,2.0,99,0.06,,,0.07,Rainwise IP-100,2013-07-23 05:16:00,
2013-07-23 01:21:00,69.2,69.0,28.99,West,270,0.0,0.0,99,0.06,,,0.08,Rainwise IP-100,2013-07-23 05:21:00,
2013-07-23 01:26:00,69.2,69.0,28.99,West,270,0.0,0.0,99,0.06,,,0.08,Rainwise IP-100,2013-07-23 05:26:00,
2013-07-23 01:31:00,69.2,69.0,28.99,West,270,0.0,0.0,99,0.00,,,0.08,Rainwise IP-100,2013-07-23 05:31:00,
2013-07-23 01:36:00,69.2,69.0,28.98,West,270,0.0,0.0,99,0.06,,,0.09,Rainwise IP-100,2013-07-23 05:36:00,
2013-07-23 01:41:00,69.3,69.0,28.98,West,270,0.0,2.0,99,0.12,,,0.10,Rainwise IP-100,2013-07-23 05:41:00,
2013-07-23 01:46:00,69.3,69.0,28.98,West,270,0.0,1.0,99,0.06,,,0.10,Rainwise IP-100,2013-07-23 05:46:00,
2013-07-23 01:51:00,69.3,69.0,28.97,West,270,0.0,0.0,99,0.06,,,0.11,Rainwise IP-100,2013-07-23 05:51:00,
2013-07-23 01:56:00,69.3,69.0,28.97,West,270,0.0,0.0,99,0.06,,,0.12,Rainwise IP-100,2013-07-23 05:56:00,
2013-07-23 02:01:00,69.3,69.0,28.97,West,270,0.0,2.0,99,0.06,,,0.12,Rainwise IP-100,2013-07-23 06:01:00,
2013-07-23 02:06:00,69.3,69.0,28.97,West,270,2.0,2.0,99,0.12,,,0.13,Rainwise IP-100,2013-07-23 06:06:00,
2013-07-23 02:11:00,69.2,69.0,28.97,West,270,0.0,2.0,99,0.12,,,0.14,Rainwise IP-100,2013-07-23 06:11:00,
2013-07-23 02:16:00,69.2,69.0,28.97,West,270,0.0,0.0,99,0.12,,,0.15,Rainwise IP-100,2013-07-23 06:16:00,
2013-07-23 02:21:00,69.2,69.0,28.97,West,270,0.0,0.0,99,0.12,,,0.16,Rainwise IP-100,2013-07-23 06:21:00,
2013-07-23 02:26:00,69.2,69.0,28.97,West,270,0.0,0.0,99,0.12,,,0.17,Rainwise IP-100,2013-07-23 06:26:00,
2013-07-23 02:31:00,69.2,69.0,28.96,West,270,0.0,0.0,99,0.12,,,0.18,Rainwise IP-100,2013-07-23 06:31:00,
2013-07-23 02:36:00,69.1,68.0,28.96,West,270,0.0,0.0,99,0.12,,,0.19,Rainwise IP-100,2013-07-23 06:36:00,
2013-07-23 02:41:00,69.1,68.0,28.96,West,270,0.0,0.0,99,0.12,,,0.20,Rainwise IP-100,2013-07-23 06:41:00,
2013-07-23 02:46:00,69.2,69.0,28.96,West,270,0.0,1.0,99,0.06,,,0.20,Rainwise IP-100,2013-07-23 06:46:00,
2013-07-23 02:51:00,69.2,69.0,28.96,West,270,2.0,2.0,99,0.06,,,0.21,Rainwise IP-100,2013-07-23 06:51:00,
2013-07-23 02:56:00,69.0,68.0,28.95,West,270,1.0,2.0,99,0.12,,,0.22,Rainwise IP-100,2013-07-23 06:56:00,
2013-07-23 03:01:00,68.9,68.0,28.95,West,270,0.0,2.0,99,0.12,,,0.23,Rainwise IP-100,2013-07-23 07:01:00,
2013-07-23 03:06:00,68.9,68.0,28.95,West,270,0.0,2.0,99,0.06,,,0.23,Rainwise IP-100,2013-07-23 07:06:00,
2013-07-23 03:11:00,68.8,68.0,28.95,West,270,0.0,1.0,99,0.06,,,0.24,Rainwise IP-100,2013-07-23 07:11:00,
2013-07-23 03:16:00,68.9,68.0,28.95,West,270,0.0,0.0,99,0.06,,,0.24,Rainwise IP-100,2013-07-23 07:16:00,
2013-07-23 03:21:00,68.9,68.0,28.94,West,270,0.0,0.0,99,0.06,,,0.25,Rainwise IP-100,2013-07-23 07:21:00,
2013-07-23 03:26:00,68.9,68.0,28.94,West,270,0.0,0.0,99,0.06,,,0.25,Rainwise IP-100,2013-07-23 07:26:00,
2013-07-23 03:31:00,68.9,68.0,28.94,West,270,0.0,1.0,99,0.00,,,0.25,Rainwise IP-100,2013-07-23 07:31:00,
2013-07-23 03:36:00,68.9,68.0,28.94,West,270,0.0,2.0,99,0.06,,,0.26,Rainwise IP-100,2013-07-23 07:36:00,
2013-07-23 03:41:00,68.9,68.0,28.93,West,270,0.0,2.0,99,0.06,,,0.26,Rainwise IP-100,2013-07-23 07:41:00,
2013-07-23 03:46:00,68.9,68.0,28.93,West,270,0.0,2.0,99,0.00,,,0.26,Rainwise IP-100,2013-07-23 07:46:00,
2013-07-23 03:51:00,68.9,68.0,28.94,West,270,0.0,2.0,99,0.06,,,0.27,Rainwise IP-100,2013-07-23 07:51:00,
2013-07-23 03:56:00,68.9,68.0,28.94,West,270,0.0,2.0,99,0.06,,,0.27,Rainwise IP-100,2013-07-23 07:56:00,
2013-07-23 04:01:00,68.9,68.0,28.93,West,270,0.0,0.0,99,0.00,,,0.27,Rainwise IP-100,2013-07-23 08:01:00,
2013-07-23 04:06:00,68.8,68.0,28.93,West,270,0.0,0.0,99,0.06,,,0.28,Rainwise IP-100,2013-07-23 08:06:00,
2013-07-23 04:11:00,68.9,68.0,28.93,West,270,0.0,0.0,99,0.06,,,0.28,Rainwise IP-100,2013-07-23 08:11:00,
2013-07-23 04:16:00,68.8,68.0,28.93,West,270,0.0,1.0,99,0.00,,,0.28,Rainwise IP-100,2013-07-23 08:16:00,
2013-07-23 04:21:00,68.8,68.0,28.93,SW,225,2.0,0.0,99,0.06,,,0.29,Rainwise IP-100,2013-07-23 08:21:00,
2013-07-23 04:26:00,68.8,68.0,28.93,SW,225,0.0,2.0,99,0.06,,,0.29,Rainwise IP-100,2013-07-23 08:26:00,
2013-07-23 04:31:00,68.9,68.0,28.93,West,270,0.0,2.0,99,0.06,,,0.30,Rainwise IP-100,2013-07-23 08:31:00,
2013-07-23 04:36:00,68.9,68.0,28.93,West,270,0.0,2.0,99,0.06,,,0.30,Rainwise IP-100,2013-07-23 08:36:00,
2013-07-23 04:41:00,68.9,68.0,28.93,West,270,0.0,2.0,99,0.06,,,0.31,Rainwise IP-100,2013-07-23 08:41:00,
2013-07-23 04:46:00,68.9,68.0,28.92,WNW,292,0.0,2.0,99,0.06,,,0.31,Rainwise IP-100,2013-07-23 08:46:00,
2013-07-23 04:51:00,68.9,68.0,28.92,WNW,292,1.0,2.0,99,0.06,,,0.32,Rainwise IP-100,2013-07-23 08:51:00,
2013-07-23 04:56:00,68.9,68.0,28.92,WNW,292,0.0,2.0,99,0.12,,,0.33,Rainwise IP-100,2013-07-23 08:56:00,
2013-07-23 05:01:00,68.9,68.0,28.92,WNW,292,2.0,2.0,99,0.12,,,0.34,Rainwise IP-100,2013-07-23 09:01:00,
2013-07-23 05:06:00,68.9,68.0,28.92,WNW,292,0.0,2.0,99,0.12,,,0.35,Rainwise IP-100,2013-07-23 09:06:00,
2013-07-23 05:11:00,68.9,68.0,28.92,WNW,292,1.0,2.0,99,0.06,,,0.36,Rainwise IP-100,2013-07-23 09:11:00,
2013-07-23 05:16:00,68.9,68.0,28.92,WNW,292,2.0,2.0,99,0.06,,,0.36,Rainwise IP-100,2013-07-23 09:16:00,
2013-07-23 05:21:00,68.9,68.0,28.92,NW,315,0.0,2.0,99,0.12,,,0.37,Rainwise IP-100,2013-07-23 09:21:00,
2013-07-23 05:26:00,68.8,68.0,28.92,NW,315,2.0,2.0,99,0.06,,,0.37,Rainwise IP-100,2013-07-23 09:26:00,
2013-07-23 05:31:00,68.7,68.0,28.92,WNW,292,2.0,3.0,99,0.06,,,0.38,Rainwise IP-100,2013-07-23 09:31:00,
2013-07-23 05:36:00,68.7,68.0,28.92,WNW,292,1.0,3.0,99,0.06,,,0.39,Rainwise IP-100,2013-07-23 09:36:00,
2013-07-23 05:41:00,68.6,68.0,28.92,West,270,2.0,2.0,99,0.06,,,0.39,Rainwise IP-100,2013-07-23 09:41:00,
2013-07-23 05:46:00,68.6,68.0,28.93,WNW,292,1.0,3.0,99,0.12,,,0.40,Rainwise IP-100,2013-07-23 09:46:00,
2013-07-23 05:51:00,68.5,68.0,28.93,West,270,0.0,3.0,99,0.06,,,0.40,Rainwise IP-100,2013-07-23 09:51:00,
2013-07-23 05:56:00,68.4,68.0,28.93,WNW,292,2.0,2.0,99,0.00,,,0.40,Rainwise IP-100,2013-07-23 09:56:00,
2013-07-23 06:01:00,68.4,68.0,28.93,WNW,292,0.0,2.0,99,0.00,,,0.40,Rainwise IP-100,2013-07-23 10:01:00,
2013-07-23 06:06:00,68.4,68.0,28.93,WSW,247,1.0,4.0,99,0.00,,,0.40,Rainwise IP-100,2013-07-23 10:06:00,
2013-07-23 06:11:00,68.3,67.0,28.93,West,270,2.0,4.0,99,0.06,,,0.41,Rainwise IP-100,2013-07-23 10:11:00,
2013-07-23 06:16:00,68.3,67.0,28.93,WNW,292,2.0,3.0,99,0.06,,,0.41,Rainwise IP-100,2013-07-23 10:16:00,
2013-07-23 06:21:00,68.3,67.0,28.93,WNW,292,2.0,3.0,99,0.00,,,0.41,Rainwise IP-100,2013-07-23 10:21:00,
2013-07-23 06:26:00,68.3,67.0,28.93,WNW,292,2.0,4.0,99,0.00,,,0.41,Rainwise IP-100,2013-07-23 10:26:00,
2013-07-23 06:31:00,68.3,67.0,28.93,WNW,292,1.0,4.0,99,0.00,,,0.41,Rainwise IP-100,2013-07-23 10:31:00,
2013-07-23 06:36:00,68.3,67.0,28.93,WNW,292,1.0,3.0,99,0.00,,,0.41,Rainwise IP-100,2013-07-23 10:36:00,
2013-07-23 06:41:00,68.3,67.0,28.93,NW,315,2.0,2.0,99,0.06,,,0.42,Rainwise IP-100,2013-07-23 10:41:00,
2013-07-23 06:46:00,68.3,67.0,28.93,NW,315,2.0,3.0,99,0.06,,,0.42,Rainwise IP-100,2013-07-23 10:46:00,
2013-07-23 06:51:00,68.2,67.0,28.92,NW,315,3.0,4.0,99,0.00,,,0.42,Rainwise IP-100,2013-07-23 10:51:00,
2013-07-23 06:56:00,68.2,67.0,28.92,NW,315,2.0,3.0,99,0.00,,,0.42,Rainwise IP-100,2013-07-23 10:56:00,
2013-07-23 07:01:00,68.2,67.0,28.93,NW,315,1.0,4.0,99,0.00,,,0.42,Rainwise IP-100,2013-07-23 11:01:00,
2013-07-23 07:06:00,68.2,67.0,28.92,WNW,292,1.0,3.0,99,0.00,,,0.42,Rainwise IP-100,2013-07-23 11:06:00,
2013-07-23 07:11:00,68.2,67.0,28.92,WNW,292,2.0,4.0,99,0.00,,,0.42,Rainwise IP-100,2013-07-23 11:11:00,
2013-07-23 07:16:00,68.2,67.0,28.92,NW,315,4.0,7.0,99,0.00,,,0.42,Rainwise IP-100,2013-07-23 11:16:00,
2013-07-23 07:21:00,68.3,67.0,28.92,NW,315,1.0,5.0,99,0.00,,,0.42,Rainwise IP-100,2013-07-23 11:21:00,
2013-07-23 07:26:00,68.4,68.0,28.92,NW,315,2.0,4.0,99,0.00,,,0.42,Rainwise IP-100,2013-07-23 11:26:00,
2013-07-23 07:31:00,68.4,68.0,28.92,NW,315,2.0,4.0,99,0.00,,,0.42,Rainwise IP-100,2013-07-23 11:31:00,
2013-07-23 07:36:00,68.3,67.0,28.92,WNW,292,2.0,5.0,99,0.00,,,0.42,Rainwise IP-100,2013-07-23 11:36:00,
2013-07-23 07:41:00,68.3,67.0,28.92,WNW,292,1.0,5.0,99,0.00,,,0.42,Rainwise IP-100,2013-07-23 11:41:00,
2013-07-23 07:46:00,68.3,67.0,28.92,NW,315,4.0,4.0,99,0.00,,,0.42,Rainwise IP-100,2013-07-23 11:46:00,
2013-07-23 07:51:00,68.3,67.0,28.92,NNW,337,3.0,5.0,99,0.00,,,0.42,Rainwise IP-100,2013-07-23 11:51:00,
2013-07-23 07:56:00,68.3,67.0,28.92,NW,315,3.0,6.0,99,0.00,,,0.42,Rainwise IP-100,2013-07-23 11:56:00,
2013-07-23 08:01:00,68.4,68.0,28.92,NW,315,2.0,5.0,99,0.00,,,0.42,Rainwise IP-100,2013-07-23 12:01:00,
2013-07-23 08:06:00,68.3,67.0,28.92,NW,315,2.0,6.0,99,0.00,,,0.42,Rainwise IP-100,2013-07-23 12:06:00,
2013-07-23 08:11:00,68.4,68.0,28.92,WNW,292,2.0,8.0,99,0.00,,,0.42,Rainwise IP-100,2013-07-23 12:11:00,
2013-07-23 08:16:00,68.6,68.0,28.93,NW,315,5.0,5.0,99,0.00,,,0.42,Rainwise IP-100,2013-07-23 12:16:00,
2013-07-23 08:20:00,68.4,68.0,28.92,NW,315,3.0,6.0,99,0.00,,,0.42,Rainwise IP-100,2013-07-23 12:20:00,
2013-07-23 08:23:00,68.4,68.0,28.92,WNW,292,3.0,9.0,99,0.00,,,0.42,Rainwise IP-100,2013-07-23 12:23:00,
2013-07-23 08:28:00,68.3,67.0,28.93,NW,315,1.0,6.0,99,0.00,,,0.42,Rainwise IP-100,2013-07-23 12:28:00,
2013-07-23 08:33:00,68.3,67.0,28.92,WNW,292,4.0,7.0,99,0.00,,,0.42,Rainwise IP-100,2013-07-23 12:33:00,
2013-07-23 08:38:00,68.3,67.0,28.93,West,270,1.0,7.0,99,0.00,,,0.42,Rainwise IP-100,2013-07-23 12:38:00,
2013-07-23 08:43:00,68.3,67.0,28.93,NNW,337,3.0,0.0,99,0.00,,,0.42,Rainwise IP-100,2013-07-23 12:43:00,
2013-07-23 08:46:00,68.3,67.0,28.93,NW,315,3.0,7.0,99,0.00,,,0.42,Rainwise IP-100,2013-07-23 12:46:00,
2013-07-23 08:51:00,68.4,68.0,28.93,NNW,337,4.0,7.0,99,0.00,,,0.42,Rainwise IP-100,2013-07-23 12:51:00,
2013-07-23 08:56:00,68.6,68.0,28.93,NW,315,2.0,6.0,99,0.00,,,0.42,Rainwise IP-100,2013-07-23 12:56:00,
2013-07-23 09:01:00,68.6,68.0,28.92,NW,315,5.0,7.0,99,0.00,,,0.42,Rainwise IP-100,2013-07-23 13:01:00,
2013-07-23 09:06:00,68.4,68.0,28.92,WNW,292,1.0,6.0,99,0.00,,,0.42,Rainwise IP-100,2013-07-23 13:06:00,
2013-07-23 09:11:00,68.5,68.0,28.92,NW,315,1.0,5.0,99,0.00,,,0.42,Rainwise IP-100,2013-07-23 13:11:00,
2013-07-23 09:16:00,68.6,68.0,28.92,North,360,3.0,4.0,99,0.00,,,0.42,Rainwise IP-100,2013-07-23 13:16:00,
2013-07-23 09:21:00,68.5,68.0,28.92,NNW,337,4.0,7.0,99,0.00,,,0.42,Rainwise IP-100,2013-07-23 13:21:00,
2013-07-23 09:26:00,68.8,68.0,28.91,North,360,6.0,8.0,99,0.00,,,0.42,Rainwise IP-100,2013-07-23 13:26:00,
2013-07-23 09:31:00,68.7,68.0,28.91,NW,315,5.0,8.0,98,0.00,,,0.42,Rainwise IP-100,2013-07-23 13:31:00,
2013-07-23 09:36:00,68.8,67.0,28.91,NNW,337,3.0,9.0,97,0.00,,,0.42,Rainwise IP-100,2013-07-23 13:36:00,
2013-07-23 09:37:00,68.9,68.0,28.91,NNW,337,4.0,7.0,97,0.00,,,0.42,Rainwise IP-100,2013-07-23 13:37:00,
2013-07-23 09:42:00,69.7,69.0,28.91,NNW,337,1.0,6.0,97,0.00,,,0.42,Rainwise IP-100,2013-07-23 13:42:00,
2013-07-23 09:47:00,70.4,69.0,28.91,NNW,337,2.0,5.0,96,0.00,,,0.42,Rainwise IP-100,2013-07-23 13:47:00,
2013-07-23 09:52:00,70.5,69.0,28.91,WNW,292,2.0,6.0,94,0.00,,,0.42,Rainwise IP-100,2013-07-23 13:52:00,
2013-07-23 09:57:00,70.9,69.0,28.92,WNW,292,4.0,6.0,94,0.00,,,0.42,Rainwise IP-100,2013-07-23 13:57:00,
2013-07-23 10:02:00,71.3,69.0,28.92,West,270,1.0,7.0,93,0.00,,,0.42,Rainwise IP-100,2013-07-23 14:02:00,
2013-07-23 10:07:00,71.8,68.0,28.92,WNW,292,6.0,9.0,89,0.00,,,0.42,Rainwise IP-100,2013-07-23 14:07:00,
2013-07-23 10:12:00,72.1,68.0,28.92,WNW,292,3.0,9.0,89,0.00,,,0.42,Rainwise IP-100,2013-07-23 14:12:00,
2013-07-23 10:17:00,72.1,68.0,28.92,WNW,292,2.0,9.0,88,0.00,,,0.42,Rainwise IP-100,2013-07-23 14:17:00,
2013-07-23 10:22:00,72.1,68.0,28.93,WNW,292,7.0,0.0,87,0.00,,,0.42,Rainwise IP-100,2013-07-23 14:22:00,
2013-07-23 10:27:00,72.3,68.0,28.93,NW,315,2.0,8.0,88,0.00,,,0.42,Rainwise IP-100,2013-07-23 14:27:00,
2013-07-23 10:32:00,72.6,68.0,28.93,NNW,337,6.0,6.0,86,0.00,,,0.42,Rainwise IP-100,2013-07-23 14:32:00,
2013-07-23 10:37:00,73.1,68.0,28.93,NW,315,6.0,7.0,84,0.00,,,0.42,Rainwise IP-100,2013-07-23 14:37:00,
2013-07-23 10:42:00,73.3,68.0,28.93,West,270,6.0,8.0,83,0.00,,,0.42,Rainwise IP-100,2013-07-23 14:42:00,
2013-07-23 10:47:00,73.5,68.0,28.93,West,270,4.0,7.0,82,0.00,,,0.42,Rainwise IP-100,2013-07-23 14:47:00,
2013-07-23 10:52:00,73.7,68.0,28.93,West,270,3.0,7.0,82,0.00,,,0.42,Rainwise IP-100,2013-07-23 14:52:00,
2013-07-23 10:57:00,73.9,67.0,28.93,NNW,337,4.0,8.0,80,0.00,,,0.42,Rainwise IP-100,2013-07-23 14:57:00,
2013-07-23 11:02:00,73.9,68.0,28.93,NW,315,2.0,9.0,82,0.00,,,0.42,Rainwise IP-100,2013-07-23 15:02:00,
2013-07-23 11:07:00,74.4,69.0,28.93,WNW,292,2.0,8.0,84,0.00,,,0.42,Rainwise IP-100,2013-07-23 15:07:00,
2013-07-23 11:12:00,74.2,68.0,28.93,WNW,292,2.0,6.0,80,0.00,,,0.42,Rainwise IP-100,2013-07-23 15:12:00,
2013-07-23 11:17:00,74.5,69.0,28.93,West,270,2.0,7.0,82,0.00,,,0.42,Rainwise IP-100,2013-07-23 15:17:00,
2013-07-23 11:22:00,74.2,68.0,28.93,WNW,292,4.0,8.0,81,0.00,,,0.42,Rainwise IP-100,2013-07-23 15:22:00,
2013-07-23 11:27:00,74.3,68.0,28.94,WNW,292,6.0,7.0,81,0.00,,,0.42,Rainwise IP-100,2013-07-23 15:27:00,
2013-07-23 11:32:00,75.3,69.0,28.93,WNW,292,4.0,9.0,81,0.00,,,0.42,Rainwise IP-100,2013-07-23 15:32:00,
2013-07-23 11:37:00,75.3,68.0,28.93,West,270,3.0,6.0,78,0.00,,,0.42,Rainwise IP-100,2013-07-23 15:37:00,
2013-07-23 11:42:00,76.1,68.0,28.93,NW,315,2.0,9.0,77,0.00,,,0.42,Rainwise IP-100,2013-07-23 15:42:00,
2013-07-23 11:47:00,77.7,68.0,28.93,North,360,6.0,7.0,73,0.00,,,0.42,Rainwise IP-100,2013-07-23 15:47:00,
2013-07-23 11:52:00,77.7,68.0,28.93,NNW,337,4.0,7.0,73,0.00,,,0.42,Rainwise IP-100,2013-07-23 15:52:00,
2013-07-23 11:57:00,77.9,69.0,28.93,NNW,337,2.0,7.0,73,0.00,,,0.42,Rainwise IP-100,2013-07-23 15:57:00,
2013-07-23 12:02:00,77.7,70.0,28.93,North,360,4.0,6.0,77,0.00,,,0.42,Rainwise IP-100,2013-07-23 16:02:00,
2013-07-23 12:07:00,77.5,71.0,28.93,NE,45,2.0,7.0,79,0.00,,,0.42,Rainwise IP-100,2013-07-23 16:07:00,
2013-07-23 12:12:00,77.5,70.0,28.93,NE,45,0.0,7.0,77,0.00,,,0.42,Rainwise IP-100,2013-07-23 16:12:00,
2013-07-23 12:17:00,77.5,71.0,28.93,West,270,2.0,4.0,79,0.00,,,0.42,Rainwise IP-100,2013-07-23 16:17:00,
2013-07-23 12:22:00,77.3,68.0,28.93,North,360,5.0,6.0,74,0.00,,,0.42,Rainwise IP-100,2013-07-23 16:22:00,
2013-07-23 12:27:00,76.9,68.0,28.93,East,90,2.0,8.0,73,0.00,,,0.42,Rainwise IP-100,2013-07-23 16:27:00,
2013-07-23 12:32:00,77.5,69.0,28.93,North,360,4.0,6.0,74,0.00,,,0.42,Rainwise IP-100,2013-07-23 16:32:00,
2013-07-23 12:37:00,76.8,69.0,28.93,NE,45,4.0,7.0,76,0.00,,,0.42,Rainwise IP-100,2013-07-23 16:37:00,
2013-07-23 12:42:00,76.8,69.0,28.92,North,360,2.0,8.0,76,0.00,,,0.42,Rainwise IP-100,2013-07-23 16:42:00,
2013-07-23 12:47:00,77.9,68.0,28.92,North,360,6.0,6.0,72,0.00,,,0.42,Rainwise IP-100,2013-07-23 16:47:00,
2013-07-23 12:52:00,77.7,69.0,28.92,North,360,2.0,7.0,74,0.00,,,0.42,Rainwise IP-100,2013-07-23 16:52:00,
2013-07-23 12:57:00,77.1,67.0,28.92,NE,45,4.0,7.0,71,0.00,,,0.42,Rainwise IP-100,2013-07-23 16:57:00,
2013-07-23 13:02:00,77.2,68.0,28.92,NE,45,5.0,7.0,74,0.00,,,0.42,Rainwise IP-100,2013-07-23 17:02:00,
2013-07-23 13:07:00,77.8,69.0,28.91,North,360,4.0,6.0,75,0.00,,,0.42,Rainwise IP-100,2013-07-23 17:07:00,
2013-07-23 13:12:00,78.1,70.0,28.91,NE,45,2.0,7.0,76,0.00,,,0.42,Rainwise IP-100,2013-07-23 17:12:00,
2013-07-23 13:17:00,78.6,71.0,28.91,North,360,4.0,7.0,77,0.00,,,0.42,Rainwise IP-100,2013-07-23 17:17:00,
2013-07-23 13:22:00,78.1,68.0,28.91,NE,45,6.0,7.0,72,0.00,,,0.42,Rainwise IP-100,2013-07-23 17:22:00,
2013-07-23 13:27:00,78.3,69.0,28.91,NNE,22,6.0,7.0,73,0.00,,,0.42,Rainwise IP-100,2013-07-23 17:27:00,
2013-07-23 13:32:00,78.2,69.0,28.92,NNW,337,2.0,6.0,73,0.00,,,0.42,Rainwise IP-100,2013-07-23 17:32:00,
2013-07-23 13:37:00,78.7,69.0,28.91,NE,45,2.0,7.0,72,0.00,,,0.42,Rainwise IP-100,2013-07-23 17:37:00,
2013-07-23 13:42:00,79.0,70.0,28.91,NE,45,2.0,7.0,75,0.00,,,0.42,Rainwise IP-100,2013-07-23 17:42:00,
2013-07-23 13:47:00,79.7,70.0,28.92,SSE,157,2.0,7.0,74,0.00,,,0.42,Rainwise IP-100,2013-07-23 17:47:00,
2013-07-23 13:52:00,80.2,70.0,28.91,North,360,6.0,6.0,71,0.00,,,0.42,Rainwise IP-100,2013-07-23 17:52:00,
2013-07-23 13:57:00,79.7,68.0,28.91,North,360,5.0,6.0,68,0.00,,,0.42,Rainwise IP-100,2013-07-23 17:57:00,
2013-07-23 14:02:00,79.1,69.0,28.91,NNE,22,1.0,6.0,73,0.00,,,0.42,Rainwise IP-100,2013-07-23 18:02:00,
2013-07-23 14:07:00,79.9,70.0,28.90,NNW,337,1.0,2.0,72,0.00,,,0.42,Rainwise IP-100,2013-07-23 18:07:00,
2013-07-23 14:13:00,80.3,70.0,28.90,SE,135,0.0,2.0,72,0.00,,,0.42,Rainwise IP-100,2013-07-23 18:13:00,
2013-07-23 14:18:00,80.1,69.0,28.91,SE,135,2.0,2.0,70,0.00,,,0.42,Rainwise IP-100,2013-07-23 18:18:00,
2013-07-23 14:23:00,79.9,70.0,28.90,ESE,112,0.0,3.0,73,0.00,,,0.42,Rainwise IP-100,2013-07-23 18:23:00,
2013-07-23 14:28:00,80.8,69.0,28.90,NW,315,1.0,3.0,68,0.00,,,0.42,Rainwise IP-100,2013-07-23 18:28:00,
2013-07-23 14:33:00,80.7,70.0,28.90,South,180,1.0,4.0,70,0.00,,,0.42,Rainwise IP-100,2013-07-23 18:33:00,
2013-07-23 14:38:00,81.4,70.0,28.90,SE,135,3.0,3.0,69,0.00,,,0.42,Rainwise IP-100,2013-07-23 18:38:00,
2013-07-23 14:43:00,80.4,68.0,28.90,SSE,157,2.0,5.0,67,0.00,,,0.42,Rainwise IP-100,2013-07-23 18:43:00,
2013-07-23 14:48:00,80.9,71.0,28.90,SSE,157,2.0,3.0,72,0.00,,,0.42,Rainwise IP-100,2013-07-23 18:48:00,
2013-07-23 14:53:00,81.4,69.0,28.90,SSE,157,2.0,3.0,68,0.00,,,0.42,Rainwise IP-100,2013-07-23 18:53:00,
2013-07-23 14:58:00,81.4,69.0,28.90,NNE,22,2.0,5.0,68,0.00,,,0.42,Rainwise IP-100,2013-07-23 18:58:00,
2013-07-23 15:03:00,82.0,70.0,28.89,WNW,292,1.0,3.0,68,0.00,,,0.42,Rainwise IP-100,2013-07-23 19:03:00,
2013-07-23 15:08:00,81.8,69.0,28.90,NNE,22,1.0,4.0,67,0.00,,,0.42,Rainwise IP-100,2013-07-23 19:08:00,
2013-07-23 15:13:00,82.3,71.0,28.89,North,360,2.0,4.0,69,0.00,,,0.42,Rainwise IP-100,2013-07-23 19:13:00,
2013-07-23 15:18:00,82.6,67.0,28.89,North,360,4.0,5.0,61,0.00,,,0.42,Rainwise IP-100,2013-07-23 19:18:00,
2013-07-23 15:23:00,83.0,70.0,28.89,SE,135,2.0,6.0,65,0.00,,,0.42,Rainwise IP-100,2013-07-23 19:23:00,
2013-07-23 15:28:00,83.2,68.0,28.89,SE,135,3.0,3.0,60,0.00,,,0.42,Rainwise IP-100,2013-07-23 19:28:00,
2013-07-23 15:33:00,83.1,69.0,28.89,NW,315,0.0,4.0,62,0.00,,,0.42,Rainwise IP-100,2013-07-23 19:33:00,
2013-07-23 15:38:00,82.9,68.0,28.89,WSW,247,1.0,6.0,61,0.00,,,0.42,Rainwise IP-100,2013-07-23 19:38:00,
2013-07-23 15:43:00,82.9,68.0,28.88,West,270,3.0,7.0,61,0.00,,,0.42,Rainwise IP-100,2013-07-23 19:43:00,
2013-07-23 15:48:00,83.2,68.0,28.88,WNW,292,0.0,6.0,60,0.00,,,0.42,Rainwise IP-100,2013-07-23 19:48:00,
2013-07-23 15:53:00,83.2,69.0,28.88,NW,315,4.0,8.0,62,0.00,,,0.42,Rainwise IP-100,2013-07-23 19:53:00,
2013-07-23 15:58:00,83.6,69.0,28.88,West,270,1.0,6.0,62,0.00,,,0.42,Rainwise IP-100,2013-07-23 19:58:00,
2013-07-23 16:03:00,83.9,70.0,28.88,WSW,247,2.0,5.0,63,0.00,,,0.42,Rainwise IP-100,2013-07-23 20:03:00,
2013-07-23 16:08:00,83.6,68.0,28.88,NW,315,7.0,7.0,60,0.00,,,0.42,Rainwise IP-100,2013-07-23 20:08:00,
2013-07-23 16:13:00,83.8,67.0,28.88,SW,225,4.0,7.0,57,0.00,,,0.42,Rainwise IP-100,2013-07-23 20:13:00,
2013-07-23 16:18:00,83.3,67.0,28.88,SW,225,1.0,6.0,59,0.00,,,0.42,Rainwise IP-100,2013-07-23 20:18:00,
2013-07-23 16:23:00,83.4,67.0,28.88,WSW,247,2.0,6.0,58,0.00,,,0.42,Rainwise IP-100,2013-07-23 20:23:00,
2013-07-23 16:28:00,83.0,65.0,28.88,NW,315,3.0,0.0,55,0.00,,,0.42,Rainwise IP-100,2013-07-23 20:28:00,
2013-07-23 16:33:00,82.6,68.0,28.88,NW,315,2.0,7.0,62,0.00,,,0.42,Rainwise IP-100,2013-07-23 20:33:00,
2013-07-23 16:38:00,82.9,66.0,28.88,WSW,247,2.0,6.0,58,0.00,,,0.42,Rainwise IP-100,2013-07-23 20:38:00,
2013-07-23 16:43:00,83.2,66.0,28.88,West,270,1.0,9.0,57,0.00,,,0.42,Rainwise IP-100,2013-07-23 20:43:00,
2013-07-23 16:48:00,83.4,65.0,28.88,SW,225,3.0,6.0,54,0.00,,,0.42,Rainwise IP-100,2013-07-23 20:48:00,
2013-07-23 16:53:00,83.2,67.0,28.88,WNW,292,2.0,6.0,58,0.00,,,0.42,Rainwise IP-100,2013-07-23 20:53:00,
2013-07-23 16:58:00,83.4,66.0,28.88,NW,315,5.0,7.0,57,0.00,,,0.42,Rainwise IP-100,2013-07-23 20:58:00,
2013-07-23 17:03:00,83.7,67.0,28.87,West,270,1.0,5.0,57,0.00,,,0.42,Rainwise IP-100,2013-07-23 21:03:00,
2013-07-23 17:08:00,83.4,67.0,28.88,NW,315,0.0,7.0,58,0.00,,,0.42,Rainwise IP-100,2013-07-23 21:08:00,
2013-07-23 17:13:00,83.6,66.0,28.88,West,270,2.0,5.0,57,0.00,,,0.42,Rainwise IP-100,2013-07-23 21:13:00,
2013-07-23 17:18:00,83.3,65.0,28.88,WNW,292,3.0,7.0,54,0.00,,,0.42,Rainwise IP-100,2013-07-23 21:18:00,
2013-07-23 17:23:00,82.9,65.0,28.88,West,270,2.0,7.0,54,0.00,,,0.42,Rainwise IP-100,2013-07-23 21:23:00,
2013-07-23 17:28:00,82.5,66.0,28.88,West,270,5.0,7.0,57,0.00,,,0.42,Rainwise IP-100,2013-07-23 21:28:00,
2013-07-23 17:33:00,81.9,66.0,28.88,WNW,292,1.0,5.0,60,0.00,,,0.42,Rainwise IP-100,2013-07-23 21:33:00,
2013-07-23 17:38:00,81.9,66.0,28.88,NNW,337,4.0,6.0,58,0.00,,,0.42,Rainwise IP-100,2013-07-23 21:38:00,
2013-07-23 17:43:00,80.9,66.0,28.88,NW,315,3.0,7.0,60,0.00,,,0.42,Rainwise IP-100,2013-07-23 21:43:00,
2013-07-23 17:48:00,81.4,66.0,28.87,WNW,292,1.0,6.0,60,0.00,,,0.42,Rainwise IP-100,2013-07-23 21:48:00,
2013-07-23 17:53:00,81.8,66.0,28.88,WSW,247,2.0,9.0,59,0.00,,,0.42,Rainwise IP-100,2013-07-23 21:53:00,
2013-07-23 17:58:00,81.8,65.0,28.88,North,360,2.0,2.0,58,0.00,,,0.42,Rainwise IP-100,2013-07-23 21:58:00,
2013-07-23 18:03:00,80.8,64.0,28.88,WNW,292,2.0,0.0,58,0.00,,,0.42,Rainwise IP-100,2013-07-23 22:03:00,
2013-07-23 18:08:00,80.2,64.0,28.88,WNW,292,2.0,6.0,59,0.00,,,0.42,Rainwise IP-100,2013-07-23 22:08:00,
2013-07-23 18:13:00,80.5,65.0,28.88,WSW,247,2.0,7.0,59,0.00,,,0.42,Rainwise IP-100,2013-07-23 22:13:00,
2013-07-23 18:18:00,80.8,65.0,28.88,West,270,3.0,8.0,59,0.00,,,0.42,Rainwise IP-100,2013-07-23 22:18:00,
2013-07-23 18:23:00,80.9,65.0,28.88,WSW,247,2.0,7.0,59,0.00,,,0.42,Rainwise IP-100,2013-07-23 22:23:00,
2013-07-23 18:28:00,81.1,66.0,28.88,WSW,247,4.0,6.0,60,0.00,,,0.42,Rainwise IP-100,2013-07-23 22:28:00,
2013-07-23 18:33:00,80.7,66.0,28.88,West,270,6.0,6.0,61,0.00,,,0.42,Rainwise IP-100,2013-07-23 22:33:00,
2013-07-23 18:38:00,80.7,66.0,28.87,West,270,2.0,7.0,62,0.00,,,0.42,Rainwise IP-100,2013-07-23 22:38:00,
2013-07-23 18:43:00,80.5,66.0,28.88,WNW,292,1.0,4.0,62,0.00,,,0.42,Rainwise IP-100,2013-07-23 22:43:00,
2013-07-23 18:48:00,80.6,66.0,28.88,West,270,3.0,4.0,61,0.00,,,0.42,Rainwise IP-100,2013-07-23 22:48:00,
2013-07-23 18:53:00,80.4,66.0,28.88,West,270,2.0,4.0,63,0.00,,,0.42,Rainwise IP-100,2013-07-23 22:53:00,
2013-07-23 18:58:00,79.9,67.0,28.88,WNW,292,0.0,2.0,65,0.00,,,0.42,Rainwise IP-100,2013-07-23 22:58:00,
2013-07-23 19:03:00,79.4,66.0,28.88,WNW,292,2.0,2.0,65,0.00,,,0.42,Rainwise IP-100,2013-07-23 23:03:00,
2013-07-23 19:08:00,78.7,66.0,28.88,West,270,3.0,6.0,66,0.00,,,0.42,Rainwise IP-100,2013-07-23 23:08:00,
2013-07-23 19:13:00,78.3,66.0,28.88,WNW,292,1.0,6.0,67,0.00,,,0.42,Rainwise IP-100,2013-07-23 23:13:00,
2013-07-23 19:18:00,77.9,66.0,28.88,NW,315,1.0,3.0,68,0.00,,,0.42,Rainwise IP-100,2013-07-23 23:18:00,
2013-07-23 19:23:00,77.7,66.0,28.88,WNW,292,4.0,6.0,68,0.00,,,0.42,Rainwise IP-100,2013-07-23 23:23:00,
2013-07-23 19:28:00,77.5,66.0,28.88,WSW,247,6.0,6.0,69,0.00,,,0.42,Rainwise IP-100,2013-07-23 23:28:00,
2013-07-23 19:33:00,77.4,66.0,28.88,WNW,292,0.0,8.0,69,0.00,,,0.42,Rainwise IP-100,2013-07-23 23:33:00,
2013-07-23 19:38:00,77.3,66.0,28.88,West,270,2.0,6.0,68,0.00,,,0.42,Rainwise IP-100,2013-07-23 23:38:00,
2013-07-23 19:43:00,77.1,66.0,28.88,West,270,2.0,6.0,68,0.00,,,0.42,Rainwise IP-100,2013-07-23 23:43:00,
2013-07-23 19:48:00,76.9,66.0,28.87,West,270,1.0,4.0,68,0.00,,,0.42,Rainwise IP-100,2013-07-23 23:48:00,
2013-07-23 19:53:00,76.7,66.0,28.87,West,270,2.0,4.0,69,0.00,,,0.42,Rainwise IP-100,2013-07-23 23:53:00,
2013-07-23 19:58:00,76.4,65.0,28.87,WSW,247,2.0,3.0,69,0.00,,,0.42,Rainwise IP-100,2013-07-23 23:58:00,
2013-07-23 20:03:00,76.3,66.0,28.87,West,270,2.0,5.0,70,0.00,,,0.42,Rainwise IP-100,2013-07-24 00:03:00,
2013-07-23 20:08:00,76.1,65.0,28.87,West,270,2.0,5.0,70,0.00,,,0.42,Rainwise IP-100,2013-07-24 00:08:00,
2013-07-23 20:13:00,75.8,65.0,28.87,WNW,292,4.0,4.0,71,0.00,,,0.42,Rainwise IP-100,2013-07-24 00:13:00,
2013-07-23 20:18:00,75.7,65.0,28.87,WSW,247,2.0,6.0,71,0.00,,,0.42,Rainwise IP-100,2013-07-24 00:18:00,
2013-07-23 20:23:00,75.4,66.0,28.87,West,270,2.0,6.0,72,0.00,,,0.42,Rainwise IP-100,2013-07-24 00:23:00,
2013-07-23 20:28:00,75.1,66.0,28.87,West,270,2.0,4.0,73,0.00,,,0.42,Rainwise IP-100,2013-07-24 00:28:00,
2013-07-23 20:33:00,74.8,66.0,28.87,WSW,247,2.0,5.0,73,0.00,,,0.42,Rainwise IP-100,2013-07-24 00:33:00,
2013-07-23 20:38:00,74.5,66.0,28.86,West,270,3.0,5.0,74,0.00,,,0.42,Rainwise IP-100,2013-07-24 00:38:00,
2013-07-23 20:43:00,74.2,66.0,28.86,West,270,4.0,4.0,75,0.00,,,0.42,Rainwise IP-100,2013-07-24 00:43:00,
2013-07-23 20:48:00,73.9,66.0,28.86,West,270,2.0,4.0,76,0.00,,,0.42,Rainwise IP-100,2013-07-24 00:48:00,
2013-07-23 20:53:00,73.7,66.0,28.86,WNW,292,1.0,4.0,76,0.00,,,0.42,Rainwise IP-100,2013-07-24 00:53:00,
2013-07-23 20:58:00,73.5,66.0,28.86,SW,225,1.0,3.0,76,0.00,,,0.42,Rainwise IP-100,2013-07-24 00:58:00,
2013-07-23 21:03:00,73.4,66.0,28.86,WSW,247,1.0,3.0,77,0.00,,,0.42,Rainwise IP-100,2013-07-24 01:03:00,
2013-07-23 21:08:00,73.4,66.0,28.86,SW,225,0.0,2.0,77,0.00,,,0.42,Rainwise IP-100,2013-07-24 01:08:00,
2013-07-23 21:13:00,73.4,65.0,28.86,SSW,202,2.0,3.0,76,0.00,,,0.42,Rainwise IP-100,2013-07-24 01:13:00,
2013-07-23 21:18:00,73.4,66.0,28.86,SSW,202,0.0,3.0,77,0.00,,,0.42,Rainwise IP-100,2013-07-24 01:18:00,
2013-07-23 21:23:00,73.2,66.0,28.86,WSW,247,2.0,3.0,78,0.00,,,0.42,Rainwise IP-100,2013-07-24 01:23:00,
2013-07-23 21:28:00,73.1,65.0,28.87,SW,225,2.0,3.0,77,0.00,,,0.42,Rainwise IP-100,2013-07-24 01:28:00,
2013-07-23 21:33:00,73.1,66.0,28.87,SW,225,2.0,5.0,78,0.00,,,0.42,Rainwise IP-100,2013-07-24 01:33:00,
2013-07-23 21:38:00,72.9,66.0,28.87,SW,225,2.0,3.0,78,0.00,,,0.42,Rainwise IP-100,2013-07-24 01:38:00,
2013-07-23 21:43:00,72.9,66.0,28.88,WSW,247,3.0,4.0,78,0.00,,,0.42,Rainwise IP-100,2013-07-24 01:43:00,
2013-07-23 21:48:00,72.9,66.0,28.88,WNW,292,2.0,4.0,78,0.00,,,0.42,Rainwise IP-100,2013-07-24 01:48:00,
2013-07-23 21:53:00,73.1,65.0,28.88,West,270,4.0,4.0,77,0.00,,,0.42,Rainwise IP-100,2013-07-24 01:53:00,
2013-07-23 21:58:00,73.1,65.0,28.88,WSW,247,3.0,4.0,77,0.00,,,0.42,Rainwise IP-100,2013-07-24 01:58:00,
2013-07-23 22:03:00,73.6,65.0,28.88,WNW,292,3.0,9.0,75,0.00,,,0.42,Rainwise IP-100,2013-07-24 02:03:00,
2013-07-23 22:08:00,73.8,65.0,28.88,South,180,4.0,7.0,75,0.00,,,0.42,Rainwise IP-100,2013-07-24 02:08:00,
2013-07-23 22:13:00,73.9,66.0,28.88,SW,225,1.0,7.0,75,0.00,,,0.42,Rainwise IP-100,2013-07-24 02:13:00,
2013-07-23 22:18:00,73.8,66.0,28.88,SSW,202,4.0,4.0,76,0.00,,,0.42,Rainwise IP-100,2013-07-24 02:18:00,
2013-07-23 22:23:00,73.5,66.0,28.88,SE,135,2.0,4.0,77,0.00,,,0.42,Rainwise IP-100,2013-07-24 02:23:00,
2013-07-23 22:28:00,73.2,66.0,28.88,SE,135,0.0,3.0,78,0.00,,,0.42,Rainwise IP-100,2013-07-24 02:28:00,
2013-07-23 22:33:00,72.9,66.0,28.88,South,180,2.0,6.0,78,0.00,,,0.42,Rainwise IP-100,2013-07-24 02:33:00,
2013-07-23 22:38:00,72.8,65.0,28.88,SSW,202,1.0,6.0,78,0.00,,,0.42,Rainwise IP-100,2013-07-24 02:38:00,
2013-07-23 22:43:00,72.8,65.0,28.88,SW,225,2.0,5.0,78,0.00,,,0.42,Rainwise IP-100,2013-07-24 02:43:00,
2013-07-23 22:48:00,72.9,66.0,28.88,WSW,247,2.0,4.0,78,0.00,,,0.42,Rainwise IP-100,2013-07-24 02:48:00,
2013-07-23 22:53:00,72.9,66.0,28.88,SW,225,2.0,3.0,78,0.00,,,0.42,Rainwise IP-100,2013-07-24 02:53:00,
2013-07-23 22:58:00,72.8,66.0,28.88,SW,225,1.0,5.0,79,0.00,,,0.42,Rainwise IP-100,2013-07-24 02:58:00,
2013-07-23 23:03:00,72.8,66.0,28.88,SSW,202,2.0,3.0,79,0.00,,,0.42,Rainwise IP-100,2013-07-24 03:03:00,
2013-07-23 23:08:00,72.8,66.0,28.88,SW,225,2.0,5.0,79,0.00,,,0.42,Rainwise IP-100,2013-07-24 03:08:00,
2013-07-23 23:13:00,72.8,66.0,28.88,SW,225,1.0,4.0,79,0.00,,,0.42,Rainwise IP-100,2013-07-24 03:13:00,
2013-07-23 23:18:00,72.7,66.0,28.88,WSW,247,3.0,5.0,80,0.00,,,0.42,Rainwise IP-100,2013-07-24 03:18:00,
2013-07-23 23:23:00,72.8,66.0,28.88,WSW,247,2.0,6.0,80,0.00,,,0.42,Rainwise IP-100,2013-07-24 03:23:00,
2013-07-23 23:28:00,72.7,66.0,28.88,WNW,292,1.0,4.0,80,0.00,,,0.42,Rainwise IP-100,2013-07-24 03:28:00,
2013-07-23 23:33:00,72.6,66.0,28.89,WSW,247,2.0,3.0,80,0.00,,,0.42,Rainwise IP-100,2013-07-24 03:33:00,
2013-07-23 23:38:00,72.4,66.0,28.89,WNW,292,2.0,2.0,81,0.00,,,0.42,Rainwise IP-100,2013-07-24 03:38:00,
2013-07-23 23:43:00,72.4,66.0,28.89,West,270,2.0,6.0,81,0.00,,,0.42,Rainwise IP-100,2013-07-24 03:43:00,
2013-07-23 23:48:00,72.5,66.0,28.90,NW,315,8.0,9.0,80,0.00,,,0.42,Rainwise IP-100,2013-07-24 03:48:00,
2013-07-23 23:53:00,71.8,65.0,28.91,WNW,292,8.0,8.0,81,0.00,,,0.42,Rainwise IP-100,2013-07-24 03:53:00,
2013-07-23 23:58:00,71.2,65.0,28.90,NW,315,6.0,6.0,82,0.00,,,0.42,Rainwise IP-100,2013-07-24 03:58:00,